Probability
0 0 0 0 0 0 0 0 0 0 0 0 0 0 0 0 0 0 0 0 0 0 0 0 0 0 0 0 1 2 2 1 1 2 3 2 1 0 0 0 1 1 1
0 0 0 0 0 0 0 0 0 0 0 0 0 0 0 0 0 0 0 0 0 0 0 0 0 0 0 0 0 1 3 2 2 3 3 1 0 0 0 0 0 1 2
0 0 0 0 0 0 0 0 0 0 0 0 0 0 0 0 0 0 0 0 0 0 0 0 0 0 0 0 0 1 3 3 3 3 3 1 0 0 0 0 0 1 2
0 0 0 0 0 0 0 0 0 0 0 0 0 0 0 0 0 0 0 0 0 0 0 0 0 0 0 0 0 2 3 2 2 3 2 1 0 0 0 0 1 2 3
0 0 0 0 0 0 0 0 0 0 0 0 0 0 0 0 0 0 0 0 0 0 0 0 0 0 0 0 1 3 4 2 1 1 1 0 0 0 0 0 1 2 3
1 1 0 0 0 0 0 0 0 0 0 0 0 0 0 0 0 0 0 0 0 0 0 0 0 0 0 0 1 3 3 3 2 1 0 0 0 0 0 0 1 2 3
2 2 1 0 0 0 0 0 0 0 0 0 0 0 0 0 0 0 0 0 0 0 0 0 0 0 0 0 1 1 2 3 4 2 0 0 0 1 1 0 1 2 3
3 3 1 0 0 0 0 0 0 0 0 0 0 0 0 0 0 0 0 0 0 0 0 0 0 0 0 0 0 0 1 2 2 1 0 0 1 3 3 2 2 3 3
3 3 2 0 0 0 0 0 0 0 0 0 0 0 0 0 0 0 0 0 0 0 0 0 0 0 0 0 0 0 0 1 1 0 0 1 2 4 4 4 4 3 3
3 3 2 0 0 0 0 0 0 0 0 0 0 0 0 0 0 0 0 0 0 0 0 0 0 0 0 0 0 0 0 0 0 0 0 1 2 3 3 4 3 3 3
3 2 1 0 0 0 0 0 0 0 0 0 0 0 0 0 0 0 0 0 0 0 0 0 0 0 0 0 0 0 0 0 0 0 0 0 1 1 2 3 3 3 3
2 1 1 0 0 0 0 0 0 0 0 0 0 0 0 0 0 0 0 0 0 0 0 0 0 0 0 0 0 0 0 0 0 0 0 0 0 0 1 2 3 3 3
1 0 0 0 0 0 0 0 0 0 0 0 0 0 0 0 0 0 0 0 0 0 0 0 0 0 0 0 0 0 0 0 0 0 0 0 0 0 0 1 1 2 3
0 0 0 0 0 0 0 0 0 0 0 0 0 0 0 0 0 0 0 0 0 0 0 0 0 0 0 0 0 0 0 0 0 0 0 0 0 0 0 0 0 1 2
0 0 0 0 0 0 0 0 0 0 0 0 0 0 0 0 0 0 0 0 0 0 0 0 0 0 0 0 0 0 0 0 0 0 0 0 0 0 0 0 0 0 1
0 0 0 0 0 0 0 0 0 0 0 0 0 0 0 0 0 0 0 0 0 0 0 0 0 0 0 0 0 0 0 0 0 0 0 0 0 0 0 0 0 0 0
0 0 0 0 0 0 0 0 0 0 0 0 0 0 0 0 0 0 0 0 0 0 0 0 0 0 0 0 0 0 0 0 0 0 0 0 0 0 0 0 0 0 0
0 0 0 0 0 0 0 0 0 0 0 0 0 0 0 0 0 0 0 0 0 0 0 0 0 0 0 0 0 0 0 0 0 0 0 0 0 0 0 0 0 0 0
0 0 0 0 0 0 0 0 0 0 0 0 0 0 0 0 0 0 0 0 0 0 0 0 0 0 0 0 0 0 0 0 0 0 0 0 0 0 0 0 0 0 0
0 0 0 0 0 0 0 0 0 0 0 0 0 0 0 0 0 0 0 0 0 0 0 0 0 0 0 0 0 0 0 0 0 0 0 0 0 0 0 0 0 0 0
0 0 0 0 0 0 0 0 0 0 0 0 0 0 0 0 0 0 0 0 0 0 0 0 0 0 0 0 0 0 0 0 0 0 0 0 0 0 0 0 0 0 0
0 0 0 0 0 0 0 0 0 0 0 0 0 0 0 0 0 0 0 0 0 0 0 0 0 0 0 0 0 0 0 0 0 0 0 0 0 0 0 0 0 0 0
0 0 0 0 0 0 0 0 0 0 0 0 0 0 0 0 0 0 0 0 0 0 0 0 0 0 0 0 0 0 0 0 0 0 0 0 0 0 0 0 0 0 0
0 0 0 0 0 0 0 0 0 0 0 0 0 0 0 0 0 0 0 0 0 0 0 0 0 0 0 0 0 0 0 0 0 0 0 0 0 0 0 0 0 0 0
0 0 0 0 0 0 0 0 0 0 0 0 0 0 0 0 0 0 0 0 0 0 0 0 0 0 0 0 0 0 0 0 0 0 0 0 0 0 0 0 0 0 0
0 0 0 0 0 0 0 0 0 0 0 0 0 0 0 0 0 0 0 0 0 0 0 0 0 0 0 0 0 0 0 0 0 0 0 0 0 0 0 0 0 0 0
Wind_Speed
2 1 1 1 1 1 1 1 1 2 1 1 1 1 1 1 1 1 1 4 3 2 1 1 1 1 1 0 1 1 1 1 0 1 1 1 2 2 2 3 3 4 3
2 2 2 1 1 1 1 1 1 1 1 1 1 1 0 1 1 1 1 2 4 4 2 1 2 2 2 2 1 1 1 1 0 0 0 1 1 2 2 3 3 4 4
3 3 2 1 1 1 2 1 2 1 1 1 1 1 1 1 1 0 0 1 1 3 3 2 2 3 3 3 2 2 2 1 1 1 1 1 1 2 2 3 3 3 4
3 3 2 2 1 2 2 2 1 1 1 1 1 1 1 0 0 0 0 0 1 1 3 3 3 3 4 4 4 4 3 3 2 2 2 2 2 2 2 3 3 4 4
4 3 2 2 2 2 1 1 1 1 1 0 0 0 0 0 0 0 0 0 1 1 1 3 4 4 4 5 5 5 5 4 4 3 3 3 3 3 3 4 4 5 5
4 3 2 2 2 2 1 1 1 1 1 1 1 1 1 1 0 1 1 1 1 1 1 1 2 3 5 5 6 6 6 5 5 4 4 4 4 5 5 5 5 6 6
4 4 3 3 3 2 2 2 1 1 1 1 1 1 1 1 1 1 1 1 1 1 1 1 1 1 2 5 6 6 7 6 6 6 5 5 5 6 6 6 7 7 7
4 4 4 3 3 3 3 2 2 1 1 1 1 1 2 2 2 1 1 1 2 1 1 2 2 2 2 1 3 6 7 7 7 7 6 6 6 6 6 7 7 8 8
3 3 4 4 4 4 4 3 3 3 2 1 1 2 2 2 2 2 1 1 1 1 2 2 2 3 3 2 2 5 6 7 7 8 8 8 7 8 7 7 8 8 9
3 3 3 4 4 3 3 3 3 2 3 2 1 0 1 2 1 2 2 1 2 2 3 2 2 3 3 2 3 5 6 7 7 8 8 8 8 9 9 9 9 9 9
3 3 3 3 4 3 3 4 3 3 3 3 2 2 1 0 1 1 3 3 2 2 2 3 3 3 3 3 2 4 6 6 7 7 8 8 9 9 10 10 10 10 10
2 2 3 3 3 3 4 4 4 4 3 3 3 2 2 2 2 2 3 3 3 3 3 3 3 3 2 2 3 5 6 6 7 7 8 8 9 9 10 11 11 11 11
2 3 3 3 3 3 3 3 4 4 4 4 4 3 3 2 2 2 2 2 3 3 3 2 3 2 2 2 3 5 6 7 8 8 8 8 9 9 10 11 12 12 12
3 3 3 3 3 3 3 3 3 4 3 4 4 4 3 3 2 2 3 2 2 3 3 4 2 2 2 2 4 5 4 7 8 9 9 9 10 10 11 11 12 13 13
2 2 3 3 3 3 3 3 3 3 3 3 4 4 3 3 3 3 3 3 3 3 5 3 2 2 2 2 4 3 4 7 9 9 9 10 10 11 11 12 12 13 13
2 2 2 3 3 3 4 4 3 3 3 3 3 3 3 2 2 3 3 3 3 4 5 3 3 2 2 3 5 3 4 8 8 9 10 10 11 11 12 12 12 13 13
2 3 3 3 3 3 3 4 4 3 4 4 3 4 5 3 3 3 2 2 3 3 6 4 2 3 3 3 3 3 3 4 5 9 10 11 11 12 12 12 12 12 12
1 2 2 3 3 3 3 4 4 4 5 5 4 4 5 3 4 3 3 3 3 4 4 6 4 3 4 4 4 4 4 3 4 8 10 11 11 11 12 12 11 11 11
1 1 1 2 2 2 3 3 4 4 5 5 5 5 5 4 4 3 4 4 3 4 4 4 5 3 3 2 4 4 4 3 4 6 8 10 11 11 11 11 10 10 10
1 1 1 1 2 2 2 3 3 4 4 4 4 4 4 5 5 5 4 4 3 3 3 4 4 4 3 2 2 4 5 3 4 4 6 6 8 10 10 11 10 10 10
1 1 1 1 1 1 2 3 3 3 4 3 3 4 4 4 5 5 4 4 4 4 3 4 4 4 3 2 3 3 5 4 5 3 3 4 4 4 5 8 9 9 9
1 1 1 1 1 1 2 4 3 3 3 4 4 4 3 4 5 6 6 6 5 5 5 5 5 6 6 4 3 3 4 4 4 2 2 4 3 4 4 4 7 9 10
0 1 1 1 2 3 3 3 3 2 3 3 3 3 2 2 3 3 5 6 6 7 8 6 6 7 6 5 4 5 4 5 6 3 2 5 2 4 3 4 9 9 9
1 1 1 2 2 3 4 3 3 2 2 3 3 3 3 3 3 2 2 3 4 5 7 5 6 6 5 4 4 5 5 5 5 2 2 4 3 4 3 4 7 7 7
2 2 1 1 2 3 4 4 3 2 2 3 3 3 3 3 5 4 3 4 4 5 6 7 8 8 8 7 4 1 2 2 4 3 2 2 2 3 3 3 4 6 6
2 2 2 1 2 3 4 4 3 2 2 3 3 3 4 5 6 5 4 3 5 5 3 4 5 6 5 5 5 3 3 3 3 3 2 2 2 1 3 2 2 3 4
Wind_Direction
133 117 111 103 97 93 107 109 110 105 92 77 74 81 68 61 48 32 5 16 18 11 11 7 357 342 317 354 43 29 19 13 37 40 27 20 7 356 351 349 345 340 335
140 135 130 126 118 122 122 123 129 127 112 91 65 62 86 75 59 43 14 8 4 354 346 334 325 318 316 317 341 348 338 312 228 180 343 358 2 346 337 335 336 336 337
146 147 147 146 147 130 116 106 97 94 96 80 57 32 57 67 65 18 22 4 340 341 339 329 315 314 313 312 312 305 312 324 274 209 225 276 310 323 321 324 325 322 324
152 149 153 163 142 123 116 118 102 92 89 76 43 7 35 50 40 340 16 11 348 332 327 331 326 322 311 305 299 293 297 296 296 261 236 244 268 285 301 309 311 317 313
160 156 162 157 138 128 120 123 90 95 114 57 17 359 14 12 301 326 325 319 320 326 313 325 327 323 311 299 290 290 293 292 291 293 278 261 267 272 280 288 291 299 303
166 159 156 152 145 140 136 124 108 73 108 87 44 359 322 298 303 276 267 297 307 304 303 308 318 314 309 303 296 293 293 295 301 302 306 296 280 275 279 283 283 288 293
172 167 163 161 159 163 170 157 138 115 78 64 61 355 327 281 250 254 252 273 293 292 296 295 299 300 304 304 302 293 291 292 299 303 310 306 296 279 274 275 278 282 286
179 178 172 173 171 165 161 163 147 147 138 117 113 85 326 321 305 259 252 243 261 276 278 279 281 285 288 289 301 292 285 286 291 298 304 306 305 296 282 277 277 280 282
181 181 180 175 176 175 181 185 177 169 174 191 137 151 160 242 301 306 282 265 270 259 263 274 270 273 276 268 275 285 288 290 290 293 297 300 300 300 292 287 284 282 282
180 182 180 180 181 185 186 188 184 183 168 182 202 211 173 171 182 302 307 296 285 266 263 267 269 270 267 262 270 278 286 290 292 294 295 296 297 299 295 289 289 288 288
197 191 186 186 189 192 193 189 184 188 184 182 182 176 179 191 179 199 277 299 297 260 249 252 261 263 262 259 264 277 284 288 292 292 291 292 294 296 296 294 291 289 287
212 206 198 199 199 198 200 200 194 195 197 189 187 182 176 183 194 196 236 269 281 281 269 258 253 256 256 257 266 275 278 282 286 287 289 292 292 293 293 292 291 290 287
221 222 210 208 206 208 206 198 196 203 203 198 198 205 207 210 186 189 213 253 270 287 292 272 245 246 254 255 269 278 277 282 283 284 287 288 288 288 288 289 288 287 287
217 211 206 210 208 199 203 202 206 212 208 211 213 209 210 215 201 202 200 205 267 279 271 266 270 244 254 256 271 277 279 282 283 284 286 286 286 286 285 285 283 283 285
211 202 199 201 207 199 198 198 211 214 209 213 218 217 220 220 208 210 210 203 213 261 271 253 258 260 261 256 271 269 268 277 279 281 282 282 283 283 281 281 281 280 281
206 197 205 206 207 204 197 197 208 211 209 220 217 218 227 229 220 211 212 218 219 227 258 256 245 270 278 276 275 267 265 278 277 279 279 279 280 280 280 279 280 279 277
207 208 212 211 211 209 204 204 210 203 211 223 221 221 229 219 219 215 211 217 224 223 250 272 265 282 274 283 293 278 267 265 274 277 279 279 280 280 281 280 280 280 279
231 220 209 211 217 214 208 208 214 210 214 221 223 223 232 220 222 217 212 221 228 226 237 264 275 274 271 282 290 285 280 270 268 280 281 280 280 281 282 282 280 280 280
259 246 212 211 215 213 213 218 217 217 221 223 221 223 227 217 227 224 219 223 229 234 233 250 270 273 274 283 296 292 287 280 279 282 283 280 280 282 282 281 280 279 278
266 250 229 217 219 215 216 220 220 222 225 230 230 228 225 220 227 224 224 228 227 234 241 251 266 276 274 288 291 294 298 293 287 287 280 280 280 282 282 281 281 281 277
303 287 256 247 242 224 224 216 219 223 226 234 238 236 234 233 234 229 230 226 218 228 239 253 261 274 270 282 277 281 283 296 287 266 287 279 279 276 279 279 279 280 278
339 338 284 260 259 263 271 233 217 222 227 231 238 242 242 231 242 249 252 245 229 228 236 242 252 256 262 262 268 270 282 295 287 274 285 281 264 268 270 262 272 276 275
303 300 298 287 275 285 288 267 245 232 227 233 240 246 251 255 240 248 258 257 250 251 245 242 252 256 263 255 259 267 262 263 263 265 278 279 268 268 273 275 274 269 270
275 268 281 279 280 299 300 284 264 242 242 247 242 242 246 251 246 246 245 251 251 251 252 247 248 258 262 261 247 253 259 270 276 264 233 265 276 274 286 282 282 273 274
293 288 298 293 286 296 302 295 274 256 254 259 257 249 249 251 266 266 246 253 267 268 268 262 263 268 270 268 259 261 269 275 280 271 224 255 277 290 284 278 284 283 283
286 292 301 297 288 293 302 295 276 257 263 271 269 259 254 264 275 263 244 244 262 272 276 281 276 279 275 267 256 241 234 249 269 270 221 234 270 306 298 281 285 297 294